Lexington Weather

Lexington, Massachusetts, USA

44°F
4/22/2024 9:19am 
  • Lexington Conditions: Clear
  • Temperature: 44.4°F / 6.9°CWarmer 3.2°F than last hour.
  • Dew Point: 26.4°FDecreased 1.5°Fsince last hour.
  • Relative Humidity: 49%Decreased 10.0% since last hour.
  • Wind: Calm, 10-min avg: Calm, gust: 4 mph
  • Barometer: 29.96 in Steady
  • Visibility: 10 miles
  • Rain Today: 0.00 in
  •   

Regional Weather Roundup
for Boston, MA

        
000
ASUS41 KBOX 161010
RWRBOX

REGIONAL WEATHER ROUNDUP
NATIONAL WEATHER SERVICE BOSTON/NORTON MA
600 AM EDT TUE APR 16 2024

NOTE:  "FAIR" INDICATES FEW OR NO CLOUDS BELOW 12,000 FEET WITH NO 
SIGNIFICANT WEATHER AND/OR OBSTRUCTIONS TO VISIBILITY.

MAZALL-161100-
EASTERN MASSACHUSETTS
  
CITY           SKY/WX    TMP DP  RH WIND       PRES   REMARKS
BOSTON         PTCLDY    51  39  63 W8        30.02R                  
BEVERLY        CLEAR     40  36  86 CALM      30.01R                  
LAWRENCE       CLEAR     39  37  92 S3        30.03R                  
BEDFORD        CLEAR     36  35  96 CALM      30.01R                  
NORWOOD        CLEAR     43  38  82 CALM      30.03R                  
MARSHFIELD     CLEAR     43  41  93 W5        30.01R                  
PLYMOUTH       CLEAR     44  42  93 CALM      30.00R                  
TAUNTON        PTCLDY    42  39  89 CALM      30.02R FOG              
NEW BEDFORD    FOG       44  43  96 CALM      30.02R VSB 1            
$$

MAZALL-161100-
CAPE COD AND THE ISLANDS
  
CITY           SKY/WX    TMP DP  RH WIND       PRES   REMARKS
FALMOUTH       MOCLDY    46  45  93 CALM      30.00R                  
HYANNIS        PTCLDY    49  40  71 NW7       29.99R                  
CHATHAM        PTCLDY    46  43  89 CALM      30.00R                  
PROVINCETOWN   CLEAR     46  44  93 NW7       30.01R                  
NANTUCKET      PTCLDY    47  44  90 NW3       30.01R                  
MARTHAS VNYRD  MOCLDY    48  45  89 W6        30.01R                  
$$
 
MAZALL-161100-
CENTRAL AND WESTERN MASSACHUSETTS
  
CITY           SKY/WX    TMP DP  RH WIND       PRES   REMARKS
WORCESTER      CLEAR     45  29  53 W12       30.02R                  
FITCHBURG      CLEAR     42  33  70 VRB3      30.03R                  
ORANGE         CLEAR     31  29  92 CALM      30.05R                  
SPRINGFIELD    CLEAR     35  32  91 CALM      30.02R                  
WESTFIELD      CLEAR     36  33  89 SE3       30.05R                  
NORTH ADAMS    CLEAR     33  30  88 CALM      30.07R                  
PITTSFIELD     CLEAR     40  29  64 W6        30.05R                  
$$
 
RIZALL-161100-
RHODE ISLAND
  
CITY           SKY/WX    TMP DP  RH WIND       PRES   REMARKS
PROVIDENCE     PTCLDY    48  36  63 W3        30.03R                  
NEWPORT        CLEAR     43  41  93 CALM      30.03R                  
BLOCK ISLAND   CLEAR     48  35  60 NW6       30.05R                  
SMITHFIELD     CLEAR     46  32  58 NW3       30.03R                  
WESTERLY       CLEAR     46  34  62 CALM      30.04R                  
$$
 
CTZALL-161100-
CONNECTICUT
  
CITY           SKY/WX    TMP DP  RH WIND       PRES   REMARKS
BRADLEY INTL   CLEAR     45  30  55 W3        30.05R                  
HARTFORD       CLEAR     49  29  46 CALM      30.06R                  
PLAINVILLE     FAIR      39  36  87 CALM      30.06R                  
BRIDGEPORT     CLEAR     48  35  60 NW3       30.06R                  
DANBURY        CLEAR     39  32  76 CALM      30.08R                  
GROTON         CLEAR     45  35  68 NW3       30.05R                  
NEW HAVEN      CLEAR     44  36  73 CALM      30.06R                  
CHESTER        CLEAR     48  27  43 CALM      30.06R                  
MERIDEN        CLEAR     39  33  79 CALM      30.06R                  
WILLIMANTIC    CLEAR     39  36  89 CALM      30.05R                  
OXFORD         CLEAR     44  30  57 N6        30.07R                  
$$

MEZ002-015-021-024-NHZ003-005-008-011-012-014-VTZ005-008-161100-
NORTHERN NEW ENGLAND
  
CITY           SKY/WX    TMP DP  RH WIND       PRES   REMARKS
PORTLAND ME    PTCLDY    39  34  82 W8        29.99R                  
BANGOR ME      MOCLDY    37  33  85 SW3       29.94R                  
CONCORD NH     FOG       32  32 100 CALM      30.02R VSB 1/4          
MANCHESTER NH  CLEAR     38  34  85 CALM      30.01R                  
NASHUA NH      CLEAR     36  32  85 CALM      30.03R                  
PORTSMOUTH NH  CLEAR     42  39  91 W6        30.00R                  
JAFFREY NH     CLEAR     34  30  85 CALM      30.02R                  
KEENE NH       CLOUDY    33  33 100 CALM      30.05R FOG              
BURLINGTON VT  PTCLDY    38  35  89 CALM      30.05R                  
MT. WASHINGTON BLWGSNOW  23  23 100 NW59        N/A  VSB 1/16WCI   0  
$$

NYZ052-076-161100-
EASTERN NEW YORK
  
CITY           SKY/WX    TMP DP  RH WIND       PRES   REMARKS
ALBANY         CLEAR     43  32  65 CALM      30.09R                  
NEW YORK CITY  CLEAR     55  35  47 NW10      30.07R                  
$$
 
ANZALL-161100-
MARINE OBSERVATIONS
  
STATION/POSITION TIME  TEMP    WIND        PRES    VSBY  WAVE
                       AIR SEA DIR/SP/G                  HT/PER
                 (UTC) (F)     (DEG/KT/KT) (MB)    (MI)  (FT/S)
BOSTON BUOY      0950   46     270/  6/  8 1015.7R         2/11
BUZZARDS BAY     0900   51     290/ 10/ 10 1016.4R
NANTUCKET SOUND  0950   49 46  300/  8/ 10 1015.5R         1/ 9
MASS BAY-STELLWA 0804   46 44  280/  6/  6 1015.2R  1 7/8  2/11
ISLE OF SHOALS   0900   46     270/  8/  9 1014.6R
S OF BLOCK IS    0956      45                N/A           4/ 9
$$

......................KEY.........................
  SKY/WX - SKY CONDITION/PRESENT WEATHER
  TMP    - TEMPERATURE IN FAHRENHEIT
  DWPT   - DEWPOINT IN FAHRENHEIT
  RH     - RELATIVE HUMIDITY IN PERCENT
  WIND   - DIRECTION AND SPEED IN MPH
  PRES   - MEAN SEA LEVEL PRESSURE IN INCHES OF HG
  WCI    - WIND CHILL INDEX
  VSB    - VISIBILITY IN MILES
  HX     - HEAT INDEX
  TC     - TEMPERATURE IN CELSIUS
  VRB    - VARIABLE WIND DIRECTION
  N/A    - NOT AVAILABLE
  
      

Other recent Regional Weather Roundups

Mon Apr 22, 9:10am EDT

Mon Apr 22, 8:10am EDT

Mon Apr 22, 7:10am EDT

Mon Apr 22, 6:10am EDT

Mon Apr 22, 5:10am EDT

Mon Apr 22, 4:10am EDT

Mon Apr 22, 3:10am EDT

Mon Apr 22, 2:10am EDT

Mon Apr 22, 1:10am EDT

Mon Apr 22, 12:10am EDT

Sun Apr 21, 11:10pm EDT

Sun Apr 21, 10:10pm EDT

Sun Apr 21, 9:10pm EDT

Sun Apr 21, 8:10pm EDT

Sun Apr 21, 7:10pm EDT

Sun Apr 21, 6:10pm EDT

Sun Apr 21, 5:10pm EDT

Sun Apr 21, 4:10pm EDT

Sun Apr 21, 3:10pm EDT

Sun Apr 21, 2:10pm EDT

Sun Apr 21, 1:10pm EDT

Sun Apr 21, 12:10pm EDT

Sun Apr 21, 11:10am EDT

Sun Apr 21, 10:10am EDT

Sun Apr 21, 9:10am EDT

Sun Apr 21, 8:10am EDT

Sun Apr 21, 7:10am EDT

Sun Apr 21, 6:10am EDT

Sun Apr 21, 5:10am EDT

Sun Apr 21, 4:10am EDT

Sun Apr 21, 3:10am EDT

Sun Apr 21, 2:10am EDT

Sun Apr 21, 1:10am EDT

Sun Apr 21, 12:10am EDT

Sat Apr 20, 11:10pm EDT

Sat Apr 20, 10:10pm EDT

Sat Apr 20, 9:10pm EDT

Sat Apr 20, 8:10pm EDT

Sat Apr 20, 7:10pm EDT

Sat Apr 20, 6:10pm EDT

Sat Apr 20, 5:10pm EDT

Sat Apr 20, 4:10pm EDT

Sat Apr 20, 3:10pm EDT

Sat Apr 20, 2:10pm EDT

Sat Apr 20, 1:10pm EDT

Sat Apr 20, 12:10pm EDT

Sat Apr 20, 11:10am EDT

Sat Apr 20, 10:10am EDT

Sat Apr 20, 9:10am EDT

Sat Apr 20, 8:10am EDT

Sat Apr 20, 7:10am EDT

Sat Apr 20, 6:10am EDT

Sat Apr 20, 5:10am EDT

Sat Apr 20, 4:10am EDT

Sat Apr 20, 3:10am EDT

Sat Apr 20, 2:10am EDT

Sat Apr 20, 1:10am EDT

Sat Apr 20, 12:10am EDT

Fri Apr 19, 11:10pm EDT

Fri Apr 19, 10:10pm EDT

Fri Apr 19, 9:10pm EDT

Fri Apr 19, 8:10pm EDT

Fri Apr 19, 7:10pm EDT

Fri Apr 19, 6:10pm EDT

Fri Apr 19, 5:10pm EDT

Fri Apr 19, 4:10pm EDT

Fri Apr 19, 3:10pm EDT

Fri Apr 19, 2:10pm EDT

Fri Apr 19, 1:10pm EDT

Fri Apr 19, 12:10pm EDT

Fri Apr 19, 11:10am EDT

Fri Apr 19, 10:10am EDT

Fri Apr 19, 9:10am EDT

Fri Apr 19, 8:10am EDT

Fri Apr 19, 7:10am EDT

Fri Apr 19, 6:10am EDT

Fri Apr 19, 5:10am EDT

Fri Apr 19, 4:10am EDT

Fri Apr 19, 3:10am EDT

Fri Apr 19, 2:10am EDT

Fri Apr 19, 1:10am EDT

Fri Apr 19, 12:10am EDT

Thu Apr 18, 11:10pm EDT

Thu Apr 18, 10:10pm EDT

Thu Apr 18, 9:10pm EDT

Thu Apr 18, 8:10pm EDT

Thu Apr 18, 7:10pm EDT

Thu Apr 18, 6:10pm EDT

Thu Apr 18, 5:10pm EDT

Thu Apr 18, 4:10pm EDT

Thu Apr 18, 3:10pm EDT

Thu Apr 18, 2:10pm EDT

Thu Apr 18, 1:10pm EDT

Thu Apr 18, 12:10pm EDT

Thu Apr 18, 11:10am EDT

Thu Apr 18, 10:10am EDT

Thu Apr 18, 9:10am EDT

Thu Apr 18, 8:10am EDT

Thu Apr 18, 7:10am EDT

Thu Apr 18, 6:10am EDT

Thu Apr 18, 5:10am EDT

Thu Apr 18, 4:10am EDT

Thu Apr 18, 3:10am EDT

Thu Apr 18, 2:10am EDT

Thu Apr 18, 1:10am EDT

Thu Apr 18, 12:10am EDT

Wed Apr 17, 11:10pm EDT

Wed Apr 17, 10:10pm EDT

Wed Apr 17, 9:10pm EDT

Wed Apr 17, 8:10pm EDT

Wed Apr 17, 7:10pm EDT

Wed Apr 17, 6:10pm EDT

Wed Apr 17, 5:10pm EDT

Wed Apr 17, 4:10pm EDT

Wed Apr 17, 3:10pm EDT

Wed Apr 17, 2:10pm EDT

Wed Apr 17, 1:10pm EDT

Wed Apr 17, 12:10pm EDT

Wed Apr 17, 11:10am EDT

Wed Apr 17, 10:10am EDT

Wed Apr 17, 9:10am EDT

Wed Apr 17, 8:10am EDT

Wed Apr 17, 7:10am EDT

Wed Apr 17, 6:10am EDT

Wed Apr 17, 5:10am EDT

Wed Apr 17, 4:10am EDT

Wed Apr 17, 3:10am EDT

Wed Apr 17, 2:10am EDT

Wed Apr 17, 1:10am EDT

Wed Apr 17, 12:10am EDT

Tue Apr 16, 11:10pm EDT

Tue Apr 16, 10:10pm EDT

Tue Apr 16, 9:10pm EDT

Tue Apr 16, 8:10pm EDT

Tue Apr 16, 7:10pm EDT

Tue Apr 16, 6:10pm EDT

Tue Apr 16, 5:10pm EDT

Tue Apr 16, 4:10pm EDT

Tue Apr 16, 3:10pm EDT

Tue Apr 16, 2:10pm EDT

Tue Apr 16, 1:10pm EDT

Tue Apr 16, 12:10pm EDT

Tue Apr 16, 11:10am EDT

Tue Apr 16, 10:10am EDT

Tue Apr 16, 9:10am EDT

Tue Apr 16, 8:10am EDT

Tue Apr 16, 7:10am EDT

Tue Apr 16, 5:10am EDT

Tue Apr 16, 4:10am EDT

Tue Apr 16, 3:10am EDT

Tue Apr 16, 2:10am EDT

Tue Apr 16, 1:10am EDT

Tue Apr 16, 12:10am EDT

Mon Apr 15, 11:10pm EDT

Mon Apr 15, 10:10pm EDT

Mon Apr 15, 9:10pm EDT

Mon Apr 15, 8:10pm EDT

Mon Apr 15, 7:10pm EDT

Mon Apr 15, 6:10pm EDT

Mon Apr 15, 5:10pm EDT

Mon Apr 15, 4:10pm EDT

Mon Apr 15, 3:10pm EDT

Mon Apr 15, 2:10pm EDT

Mon Apr 15, 1:10pm EDT

Mon Apr 15, 12:10pm EDT

Mon Apr 15, 11:10am EDT

Mon Apr 15, 10:10am EDT